Date String (YYYY-MM-DD hh:mm:ss) UTC,Instrument flags,Ambient pressure (hPa),Sample flow (lpm),Bypass flow (lpm),Sample temperature (°C),Ambient temperature (°C),ASC tube jacket temperature (°C),LED temperature (°C),Box temperature (°C),Sample RH (%),Span deviation,Mass concentration (μg/m³),Mass concentration (μg/m³),Mass concentration (μg/m³)
DateTimeUTC,F1_M11,P_M11,Q1_M11,Q2_M11,T1_M11,T2_M11,T3_M11,T4_M11,T5_M11,U1_M11,ZSPAN_M11,X0_M11,X2_M11,X1_M11
2022-09-01 05:00:00,,0830.5,5.01,0.00,30.1,29.0,00.0,38.8,31.9,18.4,0000.0,0011.16,0005.13,0004.36
2022-09-01 05:01:00,,0830.5,4.98,0.00,30.1,29.0,00.0,38.8,32.0,18.4,0000.0,0011.13,0005.14,0004.34
2022-09-01 05:02:00,,0830.5,5.00,0.00,30.1,29.1,00.0,38.8,32.0,18.3,0000.0,0010.89,0005.19,0004.33
2022-09-01 05:03:00,,0830.4,5.01,0.00,30.1,29.1,00.0,38.8,32.0,18.2,0000.0,0010.98,0005.21,0004.32
2022-09-01 05:04:00,,0830.4,4.99,0.00,30.2,29.1,00.0,38.9,32.0,18.2,0000.0,0011.75,0005.23,0004.32
2022-09-01 05:05:00,,0830.4,5.00,0.00,30.2,29.2,00.0,38.9,32.0,18.1,0000.0,0011.47,0005.21,0004.31
2022-09-01 05:06:00,,0830.4,4.99,0.00,30.2,28.6,00.0,38.9,32.0,18.2,0000.0,0011.24,0005.23,0004.31
2022-09-01 05:07:00,,0830.4,5.00,0.00,30.2,27.2,00.0,38.8,31.9,18.3,0000.0,0011.25,0005.23,0004.30
2022-09-01 05:08:00,,0830.4,5.01,0.00,30.1,27.1,00.0,38.8,31.9,18.3,0000.0,0011.39,0005.20,0004.30
2022-09-01 05:09:00,,0830.4,5.00,0.00,30.0,27.2,00.0,38.8,31.7,18.4,0000.0,0012.46,0005.21,0004.29
2022-09-01 05:10:00,,0830.4,4.99,0.00,30.0,27.5,00.0,38.8,31.7,18.5,0000.0,0012.38,0005.20,0004.29
2022-09-01 05:11:00,,0830.4,5.00,0.00,30.0,27.8,00.0,38.7,31.7,18.5,0000.0,0011.89,0005.22,0004.29
2022-09-01 05:12:00,,0830.4,5.00,0.00,30.0,28.0,00.0,38.7,31.7,18.6,0000.0,0012.70,0005.18,0004.29
2022-09-01 05:13:00,,0830.4,5.00,0.00,30.0,28.2,00.0,38.7,31.7,18.6,0000.0,0012.71,0005.15,0004.29
2022-09-01 05:14:00,,0830.4,5.01,0.00,30.0,28.4,00.0,38.7,31.8,18.6,0000.0,0012.71,0005.12,0004.29
2022-09-01 05:15:00,,0830.5,5.01,0.00,30.0,28.5,00.0,38.7,31.7,18.6,0000.0,0011.79,0005.10,0004.29
2022-09-01 05:16:00,,0830.5,4.98,0.00,30.0,28.6,00.0,38.7,31.8,19.5,0000.0,0011.66,0005.11,0004.29
2022-09-01 05:17:00,,0830.6,5.00,0.00,30.0,28.7,00.0,38.7,31.8,19.6,0000.0,0011.83,0005.11,0004.28
2022-09-01 05:18:00,,0830.5,5.00,0.00,30.0,28.8,00.0,38.7,31.9,19.6,0000.0,0012.18,0005.12,0004.27
2022-09-01 05:19:00,,0830.6,5.00,0.00,30.0,28.9,00.0,38.8,31.9,19.2,0000.0,0012.25,0005.16,0004.27
2022-09-01 05:20:00,,0830.6,4.99,0.00,30.0,28.9,00.0,38.8,31.9,18.5,0000.0,0011.53,0005.16,0004.27
2022-09-01 05:21:00,,0830.6,5.01,0.00,30.1,29.0,00.0,38.8,31.9,19.5,0000.0,0011.69,0005.16,0004.27
2022-09-01 05:22:00,,0830.6,5.01,0.00,30.1,29.0,00.0,38.8,32.0,20.6,0000.0,0012.53,0005.17,0004.28
2022-09-01 05:23:00,,0830.6,4.99,0.00,30.1,29.1,00.0,38.8,32.0,20.7,0000.0,0012.17,0005.25,0004.29
2022-09-01 05:24:00,,0830.6,4.99,0.00,30.1,29.1,00.0,38.8,32.0,20.4,0000.0,0012.37,0005.27,0004.30
2022-09-01 05:25:00,,0830.6,5.01,0.00,30.2,29.2,00.0,38.9,32.0,19.4,0000.0,0013.04,0005.32,0004.31
2022-09-01 05:26:00,,0830.6,5.00,0.00,30.2,29.2,00.0,38.9,32.1,19.3,0000.0,0013.99,0005.32,0004.31
2022-09-01 05:27:00,,0830.6,4.98,0.00,30.2,29.2,00.0,38.9,32.1,19.3,0000.0,0014.16,0005.34,0004.31
2022-09-01 05:28:00,,0830.6,5.01,0.00,30.3,29.3,00.0,38.9,32.1,19.9,0000.0,0014.21,0005.40,0004.31
2022-09-01 05:29:00,,0830.6,5.00,0.00,30.3,29.1,00.0,39.0,32.2,20.1,0000.0,0014.57,0005.45,0004.32
2022-09-01 05:30:00,,0830.6,4.99,0.00,30.3,27.9,00.0,38.9,32.0,20.2,0000.0,0015.03,0005.48,0004.33
2022-09-01 05:31:00,,0830.6,5.00,0.00,30.2,27.0,00.0,38.9,32.0,20.4,0000.0,0016.86,0005.56,0004.34
2022-09-01 05:32:00,,0830.6,4.99,0.00,30.2,27.1,00.0,38.9,31.8,20.6,0000.0,0017.88,0005.64,0004.36
2022-09-01 05:33:00,,0830.6,5.01,0.00,30.1,27.4,00.0,38.8,31.7,20.7,0000.0,0017.23,0005.67,0004.37
2022-09-01 05:34:00,,0830.6,4.99,0.00,30.0,27.7,00.0,38.8,31.7,20.4,0000.0,0017.20,0005.67,0004.37
2022-09-01 05:35:00,,0830.6,5.01,0.00,30.0,28.0,00.0,38.8,31.7,20.6,0000.0,0018.09,0005.70,0004.38
2022-09-01 05:36:00,,0830.6,5.00,0.00,30.0,28.2,00.0,38.8,31.7,20.8,0000.0,0018.05,0005.74,0004.38
2022-09-01 05:37:00,,0830.6,5.01,0.00,30.0,28.4,00.0,38.8,31.8,20.7,0000.0,0017.83,0005.78,0004.38
2022-09-01 05:38:00,,0830.6,5.01,0.00,30.0,28.6,00.0,38.8,31.8,20.1,0000.0,0017.60,0005.75,0004.37
2022-09-01 05:39:00,,0830.6,5.01,0.00,30.1,28.7,00.0,38.8,31.9,19.9,0000.0,0017.45,0005.72,0004.37
2022-09-01 05:40:00,,0830.6,5.00,0.00,30.1,28.8,00.0,38.8,31.9,19.7,0000.0,0017.61,0005.74,0004.37
2022-09-01 05:41:00,,0830.5,5.00,0.00,30.1,28.9,00.0,38.8,31.9,19.4,0000.0,0017.68,0005.74,0004.37
2022-09-01 05:42:00,,0830.6,4.98,0.00,30.1,28.9,00.0,38.8,31.9,19.2,0000.0,0017.10,0005.67,0004.37
2022-09-01 05:43:00,,0830.6,5.01,0.00,30.1,29.0,00.0,38.9,32.0,19.1,0000.0,0015.48,0005.58,0004.35
2022-09-01 05:44:00,,0830.5,5.00,0.00,30.1,29.0,00.0,38.9,32.0,19.1,0000.0,0015.07,0005.52,0004.34
2022-09-01 05:45:00,,0830.6,5.00,0.00,30.2,29.1,00.0,38.9,32.0,18.8,0000.0,0015.17,0005.46,0004.33
2022-09-01 05:46:00,,0830.5,4.98,0.00,30.2,29.1,00.0,38.9,32.1,18.8,0000.0,0014.63,0005.45,0004.32
2022-09-01 05:47:00,,0830.5,5.00,0.00,30.2,29.2,00.0,38.9,32.1,19.3,0000.0,0015.28,0005.46,0004.32
2022-09-01 05:48:00,,0830.5,5.01,0.00,30.2,29.2,00.0,38.9,32.1,19.1,0000.0,0015.64,0005.37,0004.32
2022-09-01 05:49:00,,0830.6,4.99,0.00,30.3,29.2,00.0,39.0,32.1,18.9,0000.0,0016.29,0005.38,0004.33
2022-09-01 05:50:00,,0830.5,4.99,0.00,30.3,28.9,00.0,39.0,32.1,18.7,0000.0,0016.73,0005.37,0004.34
2022-09-01 05:51:00,,0830.6,5.00,0.00,30.3,27.5,00.0,39.0,32.0,18.9,0000.0,0017.22,0005.29,0004.34
2022-09-01 05:52:00,,0830.6,5.00,0.00,30.2,27.0,00.0,38.9,32.0,18.6,0000.0,0017.37,0005.24,0004.34
2022-09-01 05:53:00,,0830.5,5.00,0.00,30.1,27.1,00.0,38.9,31.8,18.8,0000.0,0017.56,0005.25,0004.34
2022-09-01 05:54:00,,0830.5,5.00,0.00,30.1,27.4,00.0,38.8,31.7,18.7,0000.0,0018.09,0005.27,0004.34
2022-09-01 05:55:00,,0830.5,5.00,0.00,30.0,27.7,00.0,38.8,31.7,18.7,0000.0,0018.44,0005.26,0004.35
2022-09-01 05:56:00,,0830.5,5.00,0.00,30.0,28.0,00.0,38.8,31.8,18.7,0000.0,0018.28,0005.31,0004.35
2022-09-01 05:57:00,,0830.5,5.00,0.00,30.0,28.2,00.0,38.8,31.8,18.7,0000.0,0017.85,0005.26,0004.36
2022-09-01 05:58:00,,0830.5,5.00,0.00,30.0,28.4,00.0,38.8,31.8,18.7,0000.0,0016.67,0005.19,0004.35
2022-09-01 05:59:00,,0830.5,5.00,0.00,30.0,28.5,00.0,38.8,31.8,18.7,0000.0,0015.68,0005.19,0004.34
